Regional Weather Roundup
Issued by NWS

Home | Current Version | Previous Version | Text Only | Print | Product List | Glossary On
Versions: 1 2 3 4 5 6 7 8 9 10 11 12 13 14 15 16 17 18 19 20 21 22 23 24 25 26 27 28 29 30 31 32 33 34 35 36 37 38 39 40 41 42 43 44 45 46 47 48 49 50
000
ASHW40 PHFO 271010
RWRHI

WEATHER ROUNDUP FOR HAWAII
NATIONAL WEATHER SERVICE HONOLULU HI
1200 AM HST WED MAY 27 2015

THIS IS AN AUTOMATED REPORT THAT HAS NOT BEEN QUALITY CONTROLLED.

NOTE..."FAIR" INDICATES FEW OR NO CLOUDS BELOW 12,000 FEET WITH NO
SIGNIFICANT WEATHER AND/OR OBSTRUCTIONS TO VISIBILITY.

* - THESE SITES REPORT LIMITED FIELDS

HIZ001>004-271100-
KAUAI-NIIHAU-

CITY           SKY/WX    TMP DP  RH WIND       PRES   REMARKS
LIHUE APT      CLEAR    N/A N/A N/A W8        29.99F
PORT ALLEN*    NOT AVBL
POIPU*           N/A     70 N/A N/A VRB2        N/A
PRINCEVILLE*     N/A     64 N/A N/A MISG        N/A
KOKOLE POINT*  NOT AVBL
MOLOAA DAIRY*  NOT AVBL
WAIMEA HTS*    NOT AVBL
PUU OPAE*      NOT AVBL
PUU LUA*       NOT AVBL
MAKAHA RIDGE*  NOT AVBL
$$

HIZ005>011-271100-
OAHU-

CITY           SKY/WX    TMP DP  RH WIND       PRES   REMARKS
HONOLULU       MOCLDY    73  63  70 N3        29.96F
KALAELOA       CLOUDY    71  61  70 CALM      29.98F
KANEOHE MCB    CLOUDY   N/A N/A N/A W7        29.95F
WHEELER FIELD  FAIR      67  61  81 NW6       29.97F
BELLOWS*       NOT AVBL
KAHUKU*        NOT AVBL
WHEELER*       NOT AVBL
WAIANAE HARBOR NOT AVBL
DILLINGHAM*      N/A     70  63  78 MISG        N/A
KAHUKU TRN*      N/A     64  63  94 SE3         N/A
KAWAILOA*        N/A     66  61  82 E1G9        N/A
KII*             N/A     70  64  83 SE3         N/A
MAKUA RANGE*     N/A     72  57  60 E7          N/A
OAHU FOREST NW NOT AVBL
SCHOFIELD BRK*   N/A     66  63  88 MISG        N/A
SCHOFIELD S*   NOT AVBL
WAIANAE VLY*   NOT AVBL
KUAOKALA*      NOT AVBL
HONOULIUULI*   NOT AVBL
MOKUOLOE IS*   NOT AVBL
PALEHUA*       NOT AVBL
WAIAWA PHB*    NOT AVBL
$$

HIZ012>013-271100-
MOLOKAI-

CITY           SKY/WX    TMP DP  RH WIND       PRES   REMARKS
MOLOKAI AIRPT  CLEAR     68  63  84 N5        29.98F
KALAUPAPA      NOT AVBL
MAKAPULAPAI*   NOT AVBL
MOLOKAI 1*     NOT AVBL
PUU ALII*      NOT AVBL
$$

HIZ016-271100-
KAHOOLAWE-

CITY           SKY/WX    TMP DP  RH WIND       PRES   REMARKS
KAHOOLAWE*     NOT AVBL
HAKIOAWA*      NOT AVBL
HONOKANAIA*      N/A     73  64  72 NE5       29.98
KANELOA*         N/A     72  64  78 NE10G20   30.04S
KEALIALALO*    NOT AVBL
LUA MAKIKA*    NOT AVBL
$$

HIZ014>015-271100-
LANAI-

CITY           SKY/WX    TMP DP  RH WIND       PRES   REMARKS
LANAI CITY     FAIR      64  61  90 E7        30.01F
LANAI 1*       NOT AVBL
$$

HIZ017>028-271100-
MAUI-

CITY           SKY/WX    TMP DP  RH WIND       PRES   REMARKS
KAHULUI        CLOUDY    74  64  71 NE5       29.97F
KAPALUA-W MAUI NOT AVBL
HANA AIRPORT   CLOUDY    66  64  94 CALM      30.00S
HANA*          NOT AVBL
HALEAKALA SUMM NOT AVBL
MAALAEA BAY*   NOT AVBL
HALEAKALA*     NOT AVBL
KAUPO GAP*     NOT AVBL
KULA 1*          N/A     53  48  84 SE14G26     N/A
$$

HIZ023>026-271100-
BIG ISLAND OF HAWAII COAST AND LOWER SLOPES-

CITY           SKY/WX    TMP DP  RH WIND       PRES   REMARKS
KAILUA KONA    CLOUDY    77  65  66 S5        29.95S
HILO           CLOUDY    69  65  86 S3        29.98F
HONOKAA*       NOT AVBL
KAWAIHAE MWT*  NOT AVBL
KAWAIHAE*        N/A     77 N/A N/A N2          N/A
SOUTH POINT*   NOT AVBL
UPOLU AIRPORT* NOT AVBL
KAMUELA*       CLOUDY    63  57  82 NE8       30.06F
HAKALAU*         N/A     48  48 100 SW3         N/A
KALOKO-HONOKO* NOT AVBL
PALI 2*          N/A    N/A N/A N/A N3          N/A
KEALAKOMO*       N/A     84  70  61 NW9         N/A
KAUPULEHU*     NOT AVBL
KAPAPALA*        N/A     65  64  98 N3          N/A
LOWER KAHUKU*  NOT AVBL
PUHE CS*       NOT AVBL
PUHO CS*       NOT AVBL
PTA KEAMUKU*     N/A     61  55  82 CALM        N/A
WAIKOLOA*      NOT AVBL
$$

HIZ027>028-271100-
BIG ISLAND OF HAWAII INTERIOR AND SUMMMITS-

CITY           SKY/WX    TMP DP  RH WIND       PRES   REMARKS
BRADSHAW FIELD CLEAR     52  51  96 W7        30.25F
MK VISITOR CEN NOT AVBL
MAUNA KEA*       N/A     36  14  41 NW30        N/A  WCI  22
MAUNA LOA*       N/A     46   5  18 MISG        N/A
MAUNA LOA 1*   NOT AVBL
PTA KIPUKA*      N/A     57  57 100 SW2         N/A
PTA RANGE 17*    N/A     54  52  94 NW3         N/A
PTA WEST*        N/A     70  68  94 NW2         N/A
NENE CABIN*    NOT AVBL
AHUMOA*        NOT AVBL
PTA PORTABLE*  NOT AVBL
PUU MALI*        N/A     48  48 100 SW3         N/A
$$

HIC003-271100-
NORTHWEST ISLANDS-

CITY           SKY/WX    TMP DP  RH WIND       PRES   REMARKS
MIDWAY ISLAND  CLEAR    N/A N/A N/A CALM      30.16R
MIDWAY NOS*    NOT AVBL
FRENCH FRIGATE NOT AVBL
$$

PHZ110>124-180-271100-
BUOY REPORTS

STATION/POSITION TIME  TEMP    WIND        PRES    WAVE   SWELL
                       AIR SEA DIR/SP/G            HT/PER HT/DIR
                 (UTC) (F)     (DEG/KT/KT) (MB)    (FT/S) (FT/D)
BUOY 51001       NOT AVBL
BUOY 51101       1000   72 74   50/ 12/ 14 1016.9F   6/ 8   5/ 30
BUOY 51100       NOT AVBL
BUOY 51002       1000   77 79  340/  2/  4 1014.2F   4/12   3/290
BUOY 51003       0900   76 79   50/  8/ 10 1015.3R   5/12   5
BUOY 51004       0912   77 78  100/ 12/ 14 1014.4F   6/13   7/200
BARBERS PT BUOY  NOT AVBL
WAIMEA BAY BUOY  1000      77                N/A     4/12   2/320
KAILUA BAY BUOY  1000      77                N/A     4/ 8   2/140
LANAI BUOY       NOT AVBL
BARBERS PT 2     1000      76                N/A     3/12   3/230
PAUWELA MAUI     1000      76                N/A     4/13   2/320
HILO             1000      76                N/A     4/ 8   2/ 40
KANEOHE BAY BUOY 1000      77                N/A     4/ 8   2/350
HANALEI KAUAI    1000      78                N/A     5/ 8   2/320
KAHULUI HARBOR   1000          320/  3/  5   N/A
HONOLULU HARBOR  1000           40/  4/  7   N/A
KILO NALU        NOT AVBL
HILO HARBOR      1000          190/  3/  4   N/A
MOKUOLOE         1000                      1015.4F
NAWILIWILI       1000          260/  7/  9   N/A
WHOTS BUOY       NOT AVBL
BUOY 51028       NOT AVBL
$$

......................KEY........................................
  SKY/WX - SKY CONDITIONS/PRESENT WEATHER
  TMP    - TEMPERATURE IN FAHRENHEIT
  DWPT   - DEWPOINT IN FAHRENHEIT
  RH     - RELATIVE HUMIDITY IN PERCENT
  WIND   - DIRECTION AND SPEED /MPH FOR ISLANDS...KTS FOR BUOYS/
  PRES   - MEAN SEA LEVEL PRESSURE IN INCHES OF HG
  VSB    - VISIBILITY IN MILES
  HX     - HEAT INDEX
  WCI    - WIND CHILL INDEX
  VRB    - VARIABLE WIND DIRECTION
  N/A    - NOT AVAILABLE



USA.gov is the U.S. government's official web portal to all federal, state and local government web resources and services.